Vancouver, WA
on Friday, January 18, 2013

Friday
Previous Day Next Day
Daily Summary
 ActualAverageRecord
Temperature
Mean Temperature °F 42°F  
Max Temperature 46°F 48°F 66°F (2005)
Min Temperature 23°F 36°F 8°F (1943)
Degree Days
Heating Degree Days 30    
Month to date heating degree days 525  
Since 1 July heating degree days 2073  
Cooling Degree Days 0    
Month to date cooling degree days 0  
Year to date cooling degree days 0  
Moisture
Dew Point 25°F   
Average Humidity 75    
Maximum Humidity 92    
Minimum Humidity 58    
Precipitation
Precipitation 0.00 in 0.17 in 3.45 in (1911)
Month to date precipitation 1.00 3.40  
Year to date precipitation 1.00 3.40  
Snow
Snow 0.00 in in in ()
Month to date snowfall 0.0  
Snow Depth 0.00 in   
Wind
Wind Speed 0 mph   
Max Wind Speed 6 mph   
Max Gust Speed 8 mph   
Visibility 8 miles   
Events     

Key: T is trace of precipitation, MM is missing value
Source: NWS Daily Summary
Time(PST)TemperatureDew PointHumidity Pressure Visibility Wind DirectionWind SpeedGust SpeedPrecipitationEvents Conditions
12:53 AM 26.1°F 23.0°F 88% 30.33 in 6.0 miles Calm Calm - N/A   Clear
1:53 AM 24.1°F 21.0°F 88% 30.34 in 7.0 miles Calm Calm - N/A   Clear
2:53 AM 24.1°F 21.0°F 88% 30.34 in 5.0 miles Calm Calm - N/A   Clear
3:53 AM 24.1°F 21.0°F 88% 30.32 in 6.0 miles Calm Calm - N/A   Clear
4:53 AM 24.1°F 21.0°F 88% 30.31 in 5.0 miles Calm Calm - N/A   Clear
5:53 AM 23.0°F 19.0°F 85% 30.31 in 7.0 miles Calm Calm - N/A   Clear
6:53 AM 24.1°F 19.9°F 84% 30.31 in 6.0 miles Calm Calm - N/A   Clear
7:53 AM 24.1°F 21.0°F 88% 30.32 in 7.0 miles Calm Calm - N/A   Clear
8:53 AM 26.1°F 23.0°F 88% 30.33 in 7.0 miles Calm Calm - N/A   Clear
9:53 AM 30.9°F 28.0°F 89% 30.35 in 8.0 miles Calm Calm - N/A   Clear
10:53 AM 35.1°F 28.9°F 78% 30.34 in 10.0 miles Calm Calm - N/A   Clear
11:53 AM 37.0°F 28.9°F 73% 30.32 in 10.0 miles Calm Calm - N/A   Clear
12:53 PM 39.9°F 28.9°F 65% 30.31 in 10.0 miles Calm Calm - N/A   Clear
1:53 PM 42.1°F 30.0°F 62% 30.29 in 10.0 miles Calm Calm - N/A   Clear
2:53 PM 44.1°F 30.9°F 60% 30.28 in 10.0 miles Calm Calm - N/A   Clear
3:53 PM 45.0°F 30.0°F 56% 30.28 in 10.0 miles Calm Calm - N/A   Clear
4:53 PM 41.0°F 30.0°F 65% 30.28 in 10.0 miles Calm Calm - N/A   Clear
5:53 PM 34.0°F 28.0°F 79% 30.29 in 10.0 miles Calm Calm - N/A   Clear
6:53 PM 30.9°F 26.1°F 82% 30.29 in 10.0 miles Calm Calm - N/A   Clear
7:53 PM 30.0°F 26.1°F 85% 30.29 in 9.0 miles Calm Calm - N/A   Clear
8:53 PM 28.9°F 24.1°F 82% 30.30 in 8.0 miles Calm Calm - N/A   Clear
9:53 PM 26.1°F 21.9°F 84% 30.31 in 6.0 miles Calm Calm - N/A   Clear
10:53 PM 25.0°F 21.9°F 88% 30.31 in 4.0 miles Calm Calm - N/A   Clear
11:53 PM 24.1°F 19.9°F 84% 30.31 in 5.0 miles Calm Calm - N/A   Clear
Moon Phase
Jan. 18 Jan. 18 Jan. 26 Feb. 03 Feb. 10
Sunrise:07:45 AM (PST) Moon Rise:11:01 AM (PST)1/18
Sunset:04:57 PM (PST) Moon Set:12:17 AM (PST)1/18

Copyright © 2014 The Weather Underground, Inc.